Weather History for KMDS - December, 2013

Change the Weather History Date:

Thursday, December 5, 2013

  Actual Average Record
Temperature  
Mean Temperature -1 °F -  
Max Temperature 5 °F 31 °F 48 °F (2012)
Min Temperature -7 °F 13 °F -7 °F (2013)
Degree Days  
Heating Degree Days 66    
Moisture  
Dew Point -3 °F    
Average Humidity 88    
Maximum Humidity 100    
Minimum Humidity 77    
Precipitation  
Precipitation 0.00 in - - ()
Sea Level Pressure  
Sea Level Pressure 30.15 in    
Wind  
Wind Speed 23 mph (WNW)    
Max Wind Speed 31 mph    
Max Gust Speed 39 mph    
Visibility 9 miles    
Events Rain , Snow    
Averages and records for this station are not official NWS values.
T = Trace of Precipitation, MM = Missing Value Source: NWS Daily Summary

Daily Weather History Graph

Daily Weather History Graph

Search for Another Location

Airport or City:

Trip Planner

Search our weather history database for the weather conditions in past years. The results will help you decide how hot, cold, wet, or windy it might be!

Date:

Astronomy

Dec. 05, 2013 Rise Set
Actual Time 7:47 AM CST 4:50 PM CST
Civil Twilight 7:14 AM CST 5:23 PM CST
Nautical Twilight 6:38 AM CST 5:59 PM CST
Astronomical Twilight 6:03 AM CST 6:34 PM CST
Moon 10:05 AM CST (12/5) 8:16 PM CST (12/5)
Length of Visible Light 10h 08m
Length of Day
9h 02m
Waxing Crescent, 11% of the Moon is Illuminated
Dec 5
Waxing Crescent
Dec 9
First Quarter
Dec 17
Full
Dec 25
Last Quarter
Jan 1
New

Hourly Weather History & Observations

Time (CST) Temp. Windchill Dew Point Humidity Pressure Visibility Wind Dir Wind Speed Gust Speed Precip Events Conditions
12:10 AM 5.0 °F -18.3 °F 5.0 °F 100% 29.90 in 5.0 mi WNW 27.6 mph 38.0 mph N/A Rain Light Freezing Rain
12:30 AM 5.0 °F -17.1 °F 5.0 °F 100% 29.91 in 6.0 mi WNW 24.2 mph 36.8 mph N/A Rain Light Freezing Rain
12:50 AM 5.0 °F -19.4 °F 5.0 °F 100% 29.91 in 2.5 mi NW 31.1 mph 38.0 mph N/A Rain Light Freezing Rain
1:10 AM 5.0 °F -19.0 °F 5.0 °F 100% 29.92 in 2.0 mi WNW 29.9 mph 38.0 mph N/A Rain Light Freezing Rain
1:30 AM 5.0 °F -19.4 °F 5.0 °F 100% 29.93 in 2.5 mi NW 31.1 mph 39.1 mph N/A Rain Light Freezing Rain
1:50 AM 5.0 °F -18.7 °F 5.0 °F 100% 29.93 in 2.5 mi WNW 28.8 mph 36.8 mph N/A Rain Light Freezing Rain
2:10 AM 5.0 °F -18.7 °F 3.2 °F 92% 29.95 in 2.0 mi NW 28.8 mph 38.0 mph N/A Snow Light Snow
2:30 AM 3.2 °F -20.7 °F 1.4 °F 92% 29.96 in 2.5 mi WNW 27.6 mph 34.5 mph N/A Rain Light Freezing Rain
2:50 AM 1.4 °F -23.2 °F 1.4 °F 100% 29.98 in 2.5 mi NW 27.6 mph 39.1 mph N/A Rain Light Freezing Rain
3:10 AM 1.4 °F -23.2 °F 1.4 °F 100% 30.00 in 4.0 mi WNW 27.6 mph 31.1 mph N/A   Overcast
3:30 AM 1.4 °F -23.2 °F -0.4 °F 92% 30.00 in 5.0 mi WNW 27.6 mph 34.5 mph N/A   Overcast
3:50 AM 1.4 °F -23.2 °F -0.4 °F 92% 30.01 in 3.0 mi WNW 27.6 mph 36.8 mph N/A   Overcast
4:10 AM -0.4 °F -25.2 °F -0.4 °F 100% 30.02 in 8.0 mi WNW 26.5 mph 34.5 mph N/A   Overcast
4:30 AM -0.4 °F -24.3 °F -0.4 °F 100% 30.03 in 7.0 mi WNW 24.2 mph 33.4 mph N/A   Overcast
4:50 AM -0.4 °F -23.8 °F -0.4 °F 100% 30.03 in 10.0 mi WNW 23.0 mph 31.1 mph N/A   Overcast
5:10 AM -0.4 °F -24.3 °F -0.4 °F 100% 30.03 in 9.0 mi WNW 24.2 mph 34.5 mph N/A   Overcast
5:30 AM -0.4 °F -22.3 °F -2.2 °F 92% 30.04 in 10.0 mi WNW 19.6 mph 29.9 mph N/A   Overcast
5:50 AM -0.4 °F -22.8 °F -2.2 °F 92% 30.05 in 10.0 mi WNW 20.7 mph 28.8 mph N/A   Mostly Cloudy
6:10 AM -0.4 °F -23.8 °F -2.2 °F 92% 30.06 in 10.0 mi WNW 23.0 mph 28.8 mph N/A   Overcast
6:30 AM -2.2 °F -25.7 °F -4.0 °F 92% 30.07 in 10.0 mi WNW 21.9 mph 28.8 mph N/A   Overcast
6:50 AM -2.2 °F -25.2 °F -4.0 °F 92% 30.08 in 10.0 mi WNW 20.7 mph 27.6 mph N/A   Overcast
7:10 AM -2.2 °F -23.5 °F -4.0 °F 92% 30.10 in 10.0 mi WNW 17.3 mph - N/A   Mostly Cloudy
7:30 AM -2.2 °F -23.5 °F -4.0 °F 92% 30.10 in 10.0 mi WNW 17.3 mph 26.5 mph N/A   Partly Cloudy
7:50 AM -2.2 °F -23.5 °F -4.0 °F 92% 30.10 in 10.0 mi WNW 17.3 mph 24.2 mph N/A   Clear
8:10 AM -2.2 °F -24.1 °F -4.0 °F 92% 30.11 in 10.0 mi WNW 18.4 mph - N/A   Clear
8:30 AM -2.2 °F -25.7 °F -4.0 °F 92% 30.11 in 10.0 mi WNW 21.9 mph 27.6 mph N/A   Clear
8:50 AM -2.2 °F -24.1 °F -4.0 °F 92% 30.13 in 10.0 mi WNW 18.4 mph 25.3 mph N/A   Clear
9:10 AM -2.2 °F -24.1 °F -4.0 °F 92% 30.14 in 10.0 mi WNW 18.4 mph 23.0 mph N/A   Clear
9:30 AM -0.4 °F -22.8 °F -4.0 °F 85% 30.14 in 10.0 mi WNW 20.7 mph 26.5 mph N/A   Clear
9:50 AM -0.4 °F -24.7 °F -4.0 °F 85% 30.14 in 10.0 mi WNW 25.3 mph 31.1 mph N/A   Clear
10:10 AM -0.4 °F -25.2 °F -4.0 °F 85% 30.14 in 10.0 mi WNW 26.5 mph 34.5 mph N/A   Clear
10:30 AM -0.4 °F -24.7 °F -4.0 °F 85% 30.16 in 9.0 mi WNW 25.3 mph 32.2 mph N/A   Clear
10:50 AM -0.4 °F -23.8 °F -4.0 °F 85% 30.18 in 10.0 mi WNW 23.0 mph 34.5 mph N/A   Mostly Cloudy
11:10 AM -0.4 °F -23.8 °F -2.2 °F 92% 30.18 in 10.0 mi WNW 23.0 mph 31.1 mph N/A   Overcast
11:30 AM 1.4 °F -23.2 °F -2.2 °F 85% 30.17 in 10.0 mi WNW 27.6 mph 32.2 mph N/A   Overcast
11:50 AM 1.4 °F -23.9 °F -2.2 °F 85% 30.16 in 10.0 mi NW 29.9 mph 36.8 mph N/A   Mostly Cloudy
12:10 PM 1.4 °F -23.2 °F -2.2 °F 85% 30.16 in 10.0 mi WNW 27.6 mph 36.8 mph N/A   Mostly Cloudy
12:30 PM 1.4 °F -22.3 °F -2.2 °F 85% 30.17 in 10.0 mi NW 25.3 mph 34.5 mph N/A   Mostly Cloudy
12:50 PM 1.4 °F -22.3 °F -2.2 °F 85% 30.17 in 10.0 mi WNW 25.3 mph 31.1 mph N/A   Overcast
1:10 PM 1.4 °F -21.4 °F -2.2 °F 85% 30.18 in 10.0 mi WNW 23.0 mph 29.9 mph N/A   Mostly Cloudy
1:30 PM 1.4 °F -19.9 °F -2.2 °F 85% 30.18 in 10.0 mi WNW 19.6 mph 24.2 mph N/A   Mostly Cloudy
1:50 PM 1.4 °F -21.0 °F -2.2 °F 85% 30.17 in 10.0 mi WNW 21.9 mph 28.8 mph N/A   Mostly Cloudy
2:10 PM 1.4 °F -19.9 °F -2.2 °F 85% 30.17 in 10.0 mi WNW 19.6 mph - N/A   Mostly Cloudy
2:30 PM 1.4 °F -21.0 °F -2.2 °F 85% 30.17 in 10.0 mi WNW 21.9 mph 28.8 mph N/A   Overcast
2:50 PM 1.4 °F -21.0 °F -2.2 °F 85% 30.17 in 10.0 mi WNW 21.9 mph 26.5 mph N/A   Mostly Cloudy
3:10 PM 1.4 °F -21.0 °F -2.2 °F 85% 30.17 in 10.0 mi WNW 21.9 mph 28.8 mph N/A   Mostly Cloudy
3:30 PM 1.4 °F -20.5 °F -2.2 °F 85% 30.17 in 10.0 mi NW 20.7 mph 28.8 mph N/A   Overcast
3:50 PM 1.4 °F -18.8 °F -2.2 °F 85% 30.19 in 10.0 mi WNW 17.3 mph 24.2 mph N/A   Mostly Cloudy
4:10 PM 1.4 °F -21.0 °F -4.0 °F 78% 30.19 in 10.0 mi NW 21.9 mph 27.6 mph N/A   Mostly Cloudy
4:30 PM -0.4 °F -19.9 °F -4.0 °F 85% 30.20 in 10.0 mi WNW 15.0 mph 20.7 mph N/A   Mostly Cloudy
4:50 PM -0.4 °F -20.5 °F -4.0 °F 85% 30.21 in 10.0 mi WNW 16.1 mph - N/A   Mostly Cloudy
5:10 PM -0.4 °F -19.9 °F -4.0 °F 85% 30.22 in 10.0 mi WNW 15.0 mph - N/A   Scattered Clouds
5:30 PM -0.4 °F -18.4 °F -5.8 °F 78% 30.22 in 10.0 mi WNW 12.7 mph - N/A   Partly Cloudy
5:50 PM -0.4 °F -15.7 °F -5.8 °F 78% 30.24 in 10.0 mi West 9.2 mph - N/A   Mostly Cloudy
6:10 PM -2.2 °F -19.9 °F -5.8 °F 85% 30.25 in 10.0 mi WNW 11.5 mph - N/A   Mostly Cloudy
6:30 PM -2.2 °F -19.9 °F -7.6 °F 78% 30.26 in 10.0 mi WNW 11.5 mph - N/A   Mostly Cloudy
6:50 PM -2.2 °F -20.7 °F -7.6 °F 78% 30.26 in 10.0 mi WNW 12.7 mph - N/A   Mostly Cloudy
7:10 PM -2.2 °F -19.9 °F -7.6 °F 78% 30.27 in 10.0 mi WNW 11.5 mph - N/A   Partly Cloudy
7:30 PM -4.0 °F -21.2 °F -7.6 °F 85% 30.29 in 10.0 mi West 10.4 mph - N/A   Clear
7:50 PM -4.0 °F -23.0 °F -7.6 °F 85% 30.28 in 10.0 mi West 12.7 mph - N/A   Clear
8:10 PM -4.0 °F -20.2 °F -9.4 °F 78% 30.30 in 10.0 mi West 9.2 mph - N/A   Clear
8:30 PM -4.0 °F -23.0 °F -9.4 °F 78% 30.30 in 10.0 mi West 12.7 mph - N/A   Clear
8:50 PM -4.0 °F -23.0 °F -9.4 °F 78% 30.30 in 10.0 mi WNW 12.7 mph - N/A   Clear
9:10 PM -4.0 °F -22.1 °F -9.4 °F 78% 30.30 in 10.0 mi WNW 11.5 mph - N/A   Clear
9:30 PM -4.0 °F -24.5 °F -9.4 °F 78% 30.30 in 10.0 mi WNW 15.0 mph - N/A   Clear
9:50 PM -5.8 °F -26.8 °F -11.2 °F 77% 30.31 in 10.0 mi WNW 15.0 mph - N/A   Clear
10:10 PM -5.8 °F -27.5 °F -11.2 °F 77% 30.31 in 10.0 mi WNW 16.1 mph - N/A   Clear
10:30 PM -5.8 °F -26.0 °F -11.2 °F 77% 30.32 in 10.0 mi WNW 13.8 mph - N/A   Clear
10:50 PM -7.6 °F -31.1 °F -11.2 °F 84% 30.32 in 10.0 mi NW 18.4 mph - N/A   Clear
11:10 PM -7.6 °F -29.1 °F - N/A% 30.32 in 10.0 mi WNW 15.0 mph - N/A   Clear
11:30 PM -7.6 °F -29.1 °F -11.2 °F 84% 30.33 in 10.0 mi WNW 15.0 mph 21.9 mph N/A   Clear
11:50 PM -7.6 °F -28.3 °F -13.0 °F 77% 30.34 in 10.0 mi WNW 13.8 mph - N/A   Clear